PUA1497 SACO-SCAT

Flight info

Callsign PUA1497
Flight time 2h 20m
Altitude 18000
Route PAMAK1G PAMAK W24 ORABA/N0244F200 W24 JUA B560 TITKI Q802 PUNAP PUNAP1E
Aircraft F406/L-SBDFGRY/SB1

Departure

Time 2026-05-09 13:23
Airport Ingeniero Aeronáutico Ambrosio L.V. Taravella International Airport (SACO)

Arrival

Time 2026-05-09 15:44
Airport Desierto de Atacama Airport (SCAT)
Time Latitude Longitude Altitude Speed Heading
2026-05-09 13:04 -31.31549 -64.21034 1588 ft 0 kts 141°
2026-05-09 13:13 -31.31550 -64.21033 1588 ft 1 kts 146°
2026-05-09 13:13 -31.31557 -64.21034 1615 ft 1 kts 216°
2026-05-09 13:14 -31.31557 -64.21041 1616 ft 2 kts 297°
2026-05-09 13:14 -31.31501 -64.21060 1586 ft 14 kts 31°
2026-05-09 13:16 -31.31116 -64.20858 1591 ft 10 kts 306°
2026-05-09 13:16 -31.31092 -64.20876 1592 ft 1 kts 26°
2026-05-09 13:16 -31.31078 -64.20861 1591 ft 6 kts 56°
2026-05-09 13:16 -31.31025 -64.20831 1591 ft 14 kts 10°
2026-05-09 13:17 -31.30902 -64.20830 1591 ft 20 kts
2026-05-09 13:17 -31.30762 -64.20835 1594 ft 20 kts
2026-05-09 13:17 -31.30621 -64.20825 1597 ft 21 kts
2026-05-09 13:17 -31.30492 -64.20838 1599 ft 11 kts 353°
2026-05-09 13:18 -31.30413 -64.20839 1601 ft 12 kts
2026-05-09 13:18 -31.30326 -64.20839 1604 ft 12 kts
2026-05-09 13:18 -31.30238 -64.20842 1603 ft 14 kts 358°
2026-05-09 13:18 -31.30131 -64.20846 1603 ft 17 kts 359°
2026-05-09 13:19 -31.30017 -64.20846 1607 ft 15 kts
2026-05-09 13:19 -31.29927 -64.20848 1604 ft 12 kts 354°
2026-05-09 13:19 -31.29837 -64.20851 1604 ft 14 kts 356°
2026-05-09 13:19 -31.29734 -64.20854 1603 ft 16 kts 348°
2026-05-09 13:20 -31.29627 -64.20908 1602 ft 18 kts 318°
2026-05-09 13:20 -31.29596 -64.20924 1602 ft 3 kts 24°
2026-05-09 13:20 -31.29577 -64.20892 1602 ft 7 kts 77°
2026-05-09 13:20 -31.29573 -64.20855 1602 ft 4 kts 94°
2026-05-09 13:21 -31.29581 -64.20838 1602 ft 1 kts 171°
2026-05-09 13:21 -31.29588 -64.20842 1608 ft 2 kts 221°
2026-05-09 13:21 -31.29592 -64.20847 1606 ft 0 kts 231°
2026-05-09 13:22 -31.29595 -64.20851 1605 ft 2 kts 216°
2026-05-09 13:22 -31.29613 -64.20851 1602 ft 3 kts 174°
2026-05-09 13:23 -31.32363 -64.20782 2019 ft 149 kts 180°
2026-05-09 13:23 -31.33400 -64.20720 2339 ft 149 kts 180°
2026-05-09 13:24 -31.34426 -64.20580 2701 ft 149 kts 162°
2026-05-09 13:24 -31.35195 -64.19774 2996 ft 156 kts 131°
2026-05-09 13:24 -31.35813 -64.18750 3314 ft 155 kts 123°
2026-05-09 13:24 -31.36161 -64.17513 3576 ft 165 kts 110°
2026-05-09 13:25 -31.36321 -64.16172 3907 ft 165 kts 105°
2026-05-09 13:25 -31.36498 -64.14854 4192 ft 168 kts 111°
2026-05-09 13:25 -31.37141 -64.12241 4763 ft 170 kts 118°
2026-05-09 13:26 -31.37566 -64.10937 5026 ft 172 kts 120°
2026-05-09 13:26 -31.38032 -64.09649 5317 ft 172 kts 123°
2026-05-09 13:26 -31.38606 -64.08433 5617 ft 171 kts 130°
2026-05-09 13:26 -31.39059 -64.07114 5912 ft 178 kts 113°
2026-05-09 13:27 -31.39286 -64.05675 6208 ft 186 kts 91°
2026-05-09 13:27 -31.38780 -64.04265 6525 ft 194 kts 49°
2026-05-09 13:27 -31.37635 -64.03468 6810 ft 195 kts
2026-05-09 13:27 -31.36337 -64.03617 7072 ft 184 kts 329°
2026-05-09 13:28 -31.35192 -64.04263 7400 ft 183 kts 328°
2026-05-09 13:28 -31.33980 -64.04785 7727 ft 187 kts 338°
2026-05-09 13:28 -31.32685 -64.05044 8054 ft 193 kts 352°
2026-05-09 13:28 -31.31422 -64.05385 8372 ft 182 kts 318°
2026-05-09 13:29 -31.30729 -64.06503 8705 ft 166 kts 274°
2026-05-09 13:29 -31.30792 -64.07808 9045 ft 161 kts 255°
2026-05-09 13:29 -31.30961 -64.09103 9408 ft 161 kts 255°
2026-05-09 13:29 -31.31115 -64.10402 9787 ft 161 kts 256°
2026-05-09 13:30 -31.31248 -64.11686 10157 ft 161 kts 256°
2026-05-09 13:30 -31.31346 -64.12995 10501 ft 163 kts 261°
2026-05-09 13:30 -31.31322 -64.14332 10831 ft 165 kts 263°
2026-05-09 13:30 -31.31313 -64.15674 11175 ft 165 kts 262°
2026-05-09 13:31 -31.31324 -64.17013 11516 ft 166 kts 262°
2026-05-09 13:31 -31.31323 -64.18350 11861 ft 167 kts 263°
2026-05-09 13:31 -31.31352 -64.19701 12221 ft 165 kts 258°
2026-05-09 13:31 -31.31484 -64.21034 12590 ft 165 kts 256°
2026-05-09 13:32 -31.31724 -64.22341 12959 ft 164 kts 249°
2026-05-09 13:32 -31.32305 -64.24935 13730 ft 166 kts 251°
2026-05-09 13:32 -31.32579 -64.26252 14123 ft 167 kts 251°
2026-05-09 13:33 -31.32866 -64.27571 14468 ft 168 kts 251°
2026-05-09 13:33 -31.33151 -64.28908 14786 ft 170 kts 251°
2026-05-09 13:33 -31.33437 -64.30249 15074 ft 171 kts 251°
2026-05-09 13:33 -31.33726 -64.31586 15318 ft 172 kts 251°
2026-05-09 13:34 -31.34015 -64.32947 15547 ft 173 kts 251°
2026-05-09 13:34 -31.34308 -64.34321 15761 ft 175 kts 251°
2026-05-09 13:34 -31.34603 -64.35701 15986 ft 176 kts 251°
2026-05-09 13:34 -31.34900 -64.37091 16198 ft 177 kts 251°
2026-05-09 13:35 -31.35199 -64.38495 16408 ft 178 kts 251°
2026-05-09 13:35 -31.35499 -64.39902 16627 ft 179 kts 251°
2026-05-09 13:35 -31.35799 -64.41315 16820 ft 180 kts 251°
2026-05-09 13:35 -31.36102 -64.42741 17011 ft 181 kts 251°
2026-05-09 13:36 -31.36407 -64.44172 17219 ft 182 kts 251°
2026-05-09 13:36 -31.36711 -64.45613 17420 ft 183 kts 251°
2026-05-09 13:36 -31.36914 -64.46571 17539 ft 183 kts 251°
2026-05-09 13:36 -31.37225 -64.48024 17715 ft 185 kts 251°
2026-05-09 13:37 -31.37640 -64.49983 17963 ft 186 kts 251°
2026-05-09 13:37 -31.37845 -64.50955 18101 ft 185 kts 251°
2026-05-09 13:37 -31.38261 -64.52913 18268 ft 190 kts 251°
2026-05-09 13:37 -31.38549 -64.54444 18305 ft 196 kts 256°
2026-05-09 13:38 -31.38681 -64.55517 18316 ft 199 kts 258°
2026-05-09 13:38 -31.38824 -64.57147 18325 ft 203 kts 262°
2026-05-09 13:38 -31.38805 -64.58819 18359 ft 205 kts 265°
2026-05-09 13:38 -31.38803 -64.60439 18671 ft 194 kts 263°
2026-05-09 13:39 -31.38826 -64.61984 18991 ft 187 kts 263°
2026-05-09 13:39 -31.38833 -64.63494 19401 ft 185 kts 263°
2026-05-09 13:39 -31.38838 -64.64995 19785 ft 185 kts 263°
2026-05-09 13:39 -31.38846 -64.66484 20135 ft 186 kts 263°
2026-05-09 13:40 -31.38854 -64.68002 20488 ft 187 kts 263°
2026-05-09 13:40 -31.38862 -64.69535 20831 ft 189 kts 263°
2026-05-09 13:40 -31.38868 -64.71074 21173 ft 190 kts 263°
2026-05-09 13:40 -31.38875 -64.72628 21515 ft 191 kts 263°
2026-05-09 13:41 -31.38882 -64.74193 21845 ft 193 kts 263°
2026-05-09 13:41 -31.38888 -64.75764 22173 ft 194 kts 263°
2026-05-09 13:41 -31.38896 -64.77350 22501 ft 196 kts 263°
2026-05-09 13:41 -31.38901 -64.78949 22823 ft 197 kts 263°
2026-05-09 13:42 -31.38907 -64.80556 23139 ft 198 kts 263°
2026-05-09 13:42 -31.38913 -64.82174 23438 ft 199 kts 263°
2026-05-09 13:42 -31.38920 -64.83803 23730 ft 201 kts 263°
2026-05-09 13:42 -31.38924 -64.85439 24022 ft 202 kts 263°
2026-05-09 13:43 -31.38932 -64.87100 24202 ft 207 kts 263°
2026-05-09 13:43 -31.38938 -64.88816 24284 ft 215 kts 264°
2026-05-09 13:43 -31.38940 -64.90590 24332 ft 221 kts 263°
2026-05-09 13:43 -31.38952 -64.92415 24355 ft 227 kts 264°
2026-05-09 13:44 -31.38946 -64.94285 24368 ft 231 kts 263°
2026-05-09 13:44 -31.38958 -64.96185 24371 ft 238 kts 263°
2026-05-09 13:44 -31.38965 -64.98148 24378 ft 244 kts 263°
2026-05-09 13:44 -31.38964 -65.00151 24384 ft 248 kts 263°
2026-05-09 13:45 -31.38973 -65.02178 24386 ft 251 kts 263°
2026-05-09 13:45 -31.38975 -65.04241 24383 ft 254 kts 264°
2026-05-09 13:45 -31.38978 -65.06318 24385 ft 256 kts 264°
2026-05-09 13:45 -31.38985 -65.08407 24394 ft 257 kts 264°
2026-05-09 13:46 -31.38986 -65.10477 24400 ft 258 kts 264°
2026-05-09 13:46 -31.38989 -65.12583 24398 ft 259 kts 264°
2026-05-09 13:46 -31.38991 -65.14692 24398 ft 260 kts 264°
2026-05-09 13:46 -31.38994 -65.16808 24399 ft 260 kts 264°
2026-05-09 13:47 -31.38996 -65.18928 24400 ft 261 kts 264°
2026-05-09 13:47 -31.38997 -65.21058 24405 ft 262 kts 264°
2026-05-09 13:47 -31.38998 -65.23188 24402 ft 262 kts 264°
2026-05-09 13:47 -31.38991 -65.25323 24403 ft 263 kts 264°
2026-05-09 13:48 -31.38998 -65.27458 24404 ft 261 kts 261°
2026-05-09 13:48 -31.39180 -65.29572 24401 ft 260 kts 258°
2026-05-09 13:48 -31.39315 -65.31689 24406 ft 262 kts 261°
2026-05-09 13:48 -31.39450 -65.33809 24403 ft 261 kts 259°
2026-05-09 13:49 -31.39601 -65.35933 24409 ft 262 kts 259°
2026-05-09 13:49 -31.39736 -65.38057 24402 ft 262 kts 259°
2026-05-09 13:49 -31.39880 -65.40186 24412 ft 261 kts 259°
2026-05-09 13:49 -31.40023 -65.42306 24413 ft 262 kts 259°
2026-05-09 13:50 -31.40161 -65.44428 24410 ft 262 kts 259°
2026-05-09 13:50 -31.40301 -65.46553 24407 ft 262 kts 259°
2026-05-09 13:50 -31.40443 -65.48676 24412 ft 262 kts 259°
2026-05-09 13:50 -31.40581 -65.50803 24410 ft 262 kts 259°
2026-05-09 13:51 -31.40720 -65.52932 24407 ft 262 kts 259°
2026-05-09 13:51 -31.40860 -65.55058 24413 ft 262 kts 259°
2026-05-09 13:51 -31.40998 -65.57163 24416 ft 262 kts 259°
2026-05-09 13:51 -31.41135 -65.59284 24417 ft 262 kts 259°
2026-05-09 13:52 -31.41273 -65.61408 24415 ft 262 kts 259°
2026-05-09 13:52 -31.41411 -65.63537 24414 ft 262 kts 259°
2026-05-09 13:52 -31.41549 -65.65660 24415 ft 262 kts 259°
2026-05-09 13:52 -31.41685 -65.67790 24422 ft 262 kts 259°
2026-05-09 13:53 -31.41822 -65.69914 24418 ft 262 kts 259°
2026-05-09 13:53 -31.41958 -65.72040 24418 ft 262 kts 259°
2026-05-09 13:53 -31.42093 -65.74162 24417 ft 262 kts 259°
2026-05-09 13:53 -31.42230 -65.76291 24426 ft 262 kts 259°
2026-05-09 13:54 -31.42364 -65.78413 24422 ft 262 kts 259°
2026-05-09 13:54 -31.42499 -65.80538 24420 ft 262 kts 259°
2026-05-09 13:54 -31.42626 -65.82541 24422 ft 262 kts 259°
2026-05-09 13:54 -31.42759 -65.84666 24424 ft 262 kts 259°
2026-05-09 13:55 -31.42894 -65.86796 24420 ft 262 kts 258°
2026-05-09 13:55 -31.43026 -65.88917 24421 ft 262 kts 258°
2026-05-09 13:55 -31.43158 -65.91014 24426 ft 262 kts 258°
2026-05-09 13:55 -31.43291 -65.93138 24425 ft 261 kts 258°
2026-05-09 13:56 -31.43423 -65.95259 24423 ft 261 kts 258°
2026-05-09 13:56 -31.43555 -65.97381 24424 ft 261 kts 258°
2026-05-09 13:56 -31.43685 -65.99501 24426 ft 261 kts 258°
2026-05-09 13:56 -31.43816 -66.01618 24424 ft 261 kts 258°
2026-05-09 13:57 -31.43947 -66.03738 24423 ft 261 kts 258°
2026-05-09 13:57 -31.44077 -66.05855 24427 ft 261 kts 258°
2026-05-09 13:57 -31.44207 -66.07971 24430 ft 261 kts 258°
2026-05-09 13:57 -31.44335 -66.10085 24429 ft 261 kts 258°
2026-05-09 13:58 -31.44465 -66.12204 24428 ft 261 kts 258°
2026-05-09 13:58 -31.44594 -66.14323 24427 ft 261 kts 258°
2026-05-09 13:58 -31.44722 -66.16438 24429 ft 261 kts 258°
2026-05-09 13:58 -31.44849 -66.18553 24433 ft 261 kts 258°
2026-05-09 13:59 -31.44978 -66.20670 24432 ft 261 kts 258°
2026-05-09 13:59 -31.45105 -66.22789 24437 ft 261 kts 258°
2026-05-09 13:59 -31.45230 -66.24910 24437 ft 261 kts 258°
2026-05-09 13:59 -31.45359 -66.27031 24437 ft 261 kts 258°
2026-05-09 14:00 -31.45484 -66.29154 24436 ft 261 kts 258°
2026-05-09 14:00 -31.45525 -66.29842 24439 ft 261 kts 257°
2026-05-09 14:00 -31.45735 -66.33370 24440 ft 261 kts 258°
2026-05-09 14:00 -31.45860 -66.35490 24442 ft 261 kts 257°
2026-05-09 14:01 -31.45985 -66.37606 24447 ft 261 kts 257°
2026-05-09 14:01 -31.46109 -66.39722 24449 ft 261 kts 257°
2026-05-09 14:01 -31.46234 -66.41842 24450 ft 261 kts 257°
2026-05-09 14:01 -31.46357 -66.43961 24450 ft 261 kts 257°
2026-05-09 14:02 -31.46480 -66.46081 24450 ft 261 kts 257°
2026-05-09 14:02 -31.46605 -66.48204 24452 ft 261 kts 257°
2026-05-09 14:02 -31.46727 -66.50328 24454 ft 261 kts 257°
2026-05-09 14:02 -31.46849 -66.52446 24453 ft 261 kts 257°
2026-05-09 14:03 -31.46973 -66.54566 24454 ft 261 kts 257°
2026-05-09 14:03 -31.47093 -66.56688 24454 ft 261 kts 257°
2026-05-09 14:03 -31.47215 -66.58807 24459 ft 261 kts 257°
2026-05-09 14:03 -31.47336 -66.60927 24461 ft 261 kts 257°
2026-05-09 14:04 -31.47454 -66.63018 24465 ft 261 kts 257°
2026-05-09 14:04 -31.47576 -66.65141 24467 ft 261 kts 257°
2026-05-09 14:04 -31.47695 -66.67260 24463 ft 261 kts 257°
2026-05-09 14:04 -31.47814 -66.69380 24461 ft 261 kts 257°
2026-05-09 14:05 -31.47935 -66.71501 24465 ft 260 kts 257°
2026-05-09 14:05 -31.48053 -66.73614 24465 ft 260 kts 256°
2026-05-09 14:05 -31.48171 -66.75733 24468 ft 260 kts 256°
2026-05-09 14:05 -31.48291 -66.77848 24472 ft 260 kts 256°
2026-05-09 14:06 -31.48406 -66.79966 24472 ft 260 kts 256°
2026-05-09 14:06 -31.48525 -66.82082 24472 ft 260 kts 256°
2026-05-09 14:06 -31.48563 -66.82770 24476 ft 261 kts 256°
2026-05-09 14:06 -31.48647 -66.84283 24478 ft 261 kts 256°
2026-05-09 14:07 -31.48763 -66.86410 24471 ft 261 kts 256°
2026-05-09 14:07 -31.48879 -66.88507 24473 ft 261 kts 256°
2026-05-09 14:07 -31.48996 -66.90630 24473 ft 261 kts 256°
2026-05-09 14:07 -31.49110 -66.92749 24476 ft 261 kts 256°
2026-05-09 14:08 -31.49227 -66.94879 24474 ft 261 kts 256°
2026-05-09 14:08 -31.49343 -66.97001 24476 ft 261 kts 256°
2026-05-09 14:08 -31.49458 -66.99121 24476 ft 261 kts 256°
2026-05-09 14:08 -31.49573 -67.01246 24480 ft 261 kts 256°
2026-05-09 14:09 -31.49688 -67.03372 24477 ft 261 kts 256°
2026-05-09 14:09 -31.49801 -67.05496 24479 ft 261 kts 256°
2026-05-09 14:09 -31.49916 -67.07627 24481 ft 261 kts 256°
2026-05-09 14:09 -31.50029 -67.09750 24480 ft 261 kts 256°
2026-05-09 14:10 -31.50255 -67.14005 24478 ft 261 kts 256°
2026-05-09 14:10 -31.50367 -67.16128 24483 ft 261 kts 256°
2026-05-09 14:10 -31.50479 -67.18257 24484 ft 261 kts 256°
2026-05-09 14:11 -31.50591 -67.20381 24483 ft 261 kts 256°
2026-05-09 14:11 -31.50700 -67.22480 24484 ft 261 kts 255°
2026-05-09 14:11 -31.50813 -67.24628 24483 ft 261 kts 255°
2026-05-09 14:11 -31.50922 -67.26728 24487 ft 261 kts 255°
2026-05-09 14:12 -31.51033 -67.28850 24488 ft 261 kts 255°
2026-05-09 14:12 -31.51142 -67.30974 24486 ft 261 kts 255°
2026-05-09 14:12 -31.51252 -67.33093 24491 ft 260 kts 255°
2026-05-09 14:12 -31.51360 -67.35212 24496 ft 261 kts 255°
2026-05-09 14:13 -31.51469 -67.37328 24489 ft 260 kts 255°
2026-05-09 14:14 -31.52217 -67.52119 24493 ft 259 kts 254°
2026-05-09 14:15 -31.52322 -67.54224 24496 ft 259 kts 254°
2026-05-09 14:15 -31.52427 -67.56335 24493 ft 259 kts 254°
2026-05-09 14:15 -31.52532 -67.58439 24496 ft 258 kts 254°
2026-05-09 14:15 -31.52635 -67.60541 24497 ft 257 kts 254°
2026-05-09 14:16 -31.52738 -67.62632 24497 ft 257 kts 254°
2026-05-09 14:16 -31.52840 -67.64717 24503 ft 256 kts 253°
2026-05-09 14:16 -31.52941 -67.66774 24499 ft 256 kts 253°
2026-05-09 14:16 -31.53042 -67.68850 24502 ft 255 kts 253°
2026-05-09 14:17 -31.53143 -67.70921 24501 ft 255 kts 253°
2026-05-09 14:17 -31.53244 -67.72995 24502 ft 254 kts 253°
2026-05-09 14:17 -31.53343 -67.75059 24504 ft 254 kts 253°
2026-05-09 14:17 -31.53443 -67.77125 24506 ft 253 kts 253°
2026-05-09 14:18 -31.53542 -67.79183 24505 ft 253 kts 253°
2026-05-09 14:18 -31.53640 -67.81237 24505 ft 252 kts 252°
2026-05-09 14:18 -31.53738 -67.83289 24509 ft 252 kts 253°
2026-05-09 14:18 -31.53834 -67.85337 24505 ft 251 kts 252°
2026-05-09 14:19 -31.53930 -67.87389 24506 ft 251 kts 252°
2026-05-09 14:19 -31.54027 -67.89431 24507 ft 251 kts 252°
2026-05-09 14:19 -31.54122 -67.91469 24495 ft 250 kts 252°
2026-05-09 14:19 -31.54218 -67.93508 24521 ft 249 kts 251°
2026-05-09 14:20 -31.54309 -67.95506 24413 ft 247 kts 252°
2026-05-09 14:20 -31.54397 -67.97495 24357 ft 242 kts 251°
2026-05-09 14:20 -31.54492 -67.99461 24437 ft 240 kts 251°
2026-05-09 14:21 -31.54675 -68.03401 24493 ft 244 kts 251°
2026-05-09 14:21 -31.54764 -68.05401 24497 ft 246 kts 251°
2026-05-09 14:21 -31.54853 -68.07409 24478 ft 246 kts 251°
2026-05-09 14:21 -31.54949 -68.09412 24487 ft 246 kts 251°
2026-05-09 14:22 -31.55037 -68.11416 24502 ft 246 kts 251°
2026-05-09 14:22 -31.55123 -68.13428 24495 ft 247 kts 250°
2026-05-09 14:22 -31.55222 -68.15439 24489 ft 247 kts 250°
2026-05-09 14:22 -31.55308 -68.17452 24498 ft 247 kts 251°
2026-05-09 14:23 -31.55396 -68.19439 24491 ft 248 kts 250°
2026-05-09 14:23 -31.55486 -68.21466 24485 ft 249 kts 250°
2026-05-09 14:23 -31.55575 -68.23488 24482 ft 249 kts 250°
2026-05-09 14:23 -31.55665 -68.25510 24477 ft 248 kts 250°
2026-05-09 14:24 -31.55754 -68.27532 24483 ft 248 kts 250°
2026-05-09 14:24 -31.55843 -68.29553 24468 ft 248 kts 250°
2026-05-09 14:24 -31.55928 -68.31563 24469 ft 246 kts 249°
2026-05-09 14:24 -31.56017 -68.33562 24472 ft 245 kts 249°
2026-05-09 14:25 -31.56104 -68.35556 24474 ft 244 kts 249°
2026-05-09 14:25 -31.56160 -68.36870 24475 ft 244 kts 249°
2026-05-09 14:25 -31.56245 -68.38860 24473 ft 244 kts 249°
2026-05-09 14:25 -31.56127 -68.40912 24475 ft 262 kts 262°
2026-05-09 14:26 -31.55687 -68.43030 24478 ft 271 kts 268°
2026-05-09 14:26 -31.55100 -68.45153 24475 ft 275 kts 271°
2026-05-09 14:26 -31.54355 -68.47262 24477 ft 286 kts 279°
2026-05-09 14:26 -31.53439 -68.49343 24477 ft 285 kts 278°
2026-05-09 14:27 -31.52625 -68.51438 24473 ft 282 kts 276°
2026-05-09 14:27 -31.51783 -68.53497 24477 ft 285 kts 278°
2026-05-09 14:27 -31.50931 -68.55583 24481 ft 283 kts 277°
2026-05-09 14:27 -31.50091 -68.57672 24477 ft 283 kts 277°
2026-05-09 14:28 -31.49240 -68.59759 24480 ft 283 kts 277°
2026-05-09 14:28 -31.48394 -68.61841 24491 ft 283 kts 277°
2026-05-09 14:28 -31.47545 -68.63931 24491 ft 284 kts 277°
2026-05-09 14:28 -31.46694 -68.66018 24490 ft 284 kts 277°
2026-05-09 14:29 -31.45845 -68.68104 24488 ft 283 kts 277°
2026-05-09 14:29 -31.44995 -68.70189 24491 ft 283 kts 277°
2026-05-09 14:29 -31.44149 -68.72267 24496 ft 283 kts 277°
2026-05-09 14:29 -31.43300 -68.74343 24501 ft 283 kts 277°
2026-05-09 14:30 -31.42452 -68.76421 24501 ft 283 kts 277°
2026-05-09 14:30 -31.41603 -68.78500 24497 ft 283 kts 277°
2026-05-09 14:30 -31.40752 -68.80582 24495 ft 283 kts 277°
2026-05-09 14:30 -31.39901 -68.82662 24483 ft 283 kts 277°
2026-05-09 14:31 -31.39063 -68.84706 24484 ft 282 kts 277°
2026-05-09 14:31 -31.38220 -68.86770 24475 ft 281 kts 276°
2026-05-09 14:31 -31.37377 -68.88827 24485 ft 280 kts 277°
2026-05-09 14:31 -31.36536 -68.90881 24486 ft 280 kts 276°
2026-05-09 14:32 -31.35692 -68.92929 24471 ft 279 kts 277°
2026-05-09 14:32 -31.34855 -68.94974 24456 ft 278 kts 277°
2026-05-09 14:32 -31.34022 -68.97007 24445 ft 276 kts 277°
2026-05-09 14:32 -31.33193 -68.99021 24480 ft 275 kts 276°
2026-05-09 14:33 -31.32365 -69.01049 24478 ft 277 kts 276°
2026-05-09 14:33 -31.31528 -69.03083 24480 ft 279 kts 277°
2026-05-09 14:33 -31.30682 -69.05130 24455 ft 280 kts 277°
2026-05-09 14:33 -31.29837 -69.07184 24440 ft 279 kts 277°
2026-05-09 14:34 -31.29001 -69.09222 24445 ft 277 kts 277°
2026-05-09 14:34 -31.28165 -69.11248 24427 ft 276 kts 277°
2026-05-09 14:34 -31.27334 -69.13263 24436 ft 275 kts 277°
2026-05-09 14:34 -31.26506 -69.15276 24437 ft 274 kts 277°
2026-05-09 14:35 -31.25687 -69.17255 24421 ft 273 kts 277°
2026-05-09 14:35 -31.24865 -69.19249 24442 ft 273 kts 277°
2026-05-09 14:35 -31.24041 -69.21250 24451 ft 274 kts 277°
2026-05-09 14:35 -31.23206 -69.23269 24447 ft 277 kts 278°
2026-05-09 14:36 -31.22363 -69.25308 24446 ft 280 kts 278°
2026-05-09 14:36 -31.21512 -69.27360 24430 ft 282 kts 278°
2026-05-09 14:36 -31.20656 -69.29428 24421 ft 282 kts 278°
2026-05-09 14:36 -31.19801 -69.31490 24419 ft 282 kts 278°
2026-05-09 14:37 -31.18947 -69.33552 24410 ft 281 kts 278°
2026-05-09 14:37 -31.18105 -69.35599 24404 ft 279 kts 277°
2026-05-09 14:37 -31.17270 -69.37646 24400 ft 280 kts 279°
2026-05-09 14:37 -31.16392 -69.39684 24392 ft 279 kts 279°
2026-05-09 14:38 -31.15559 -69.41686 24385 ft 277 kts 278°
2026-05-09 14:38 -31.14710 -69.43709 24392 ft 278 kts 279°
2026-05-09 14:38 -31.13852 -69.45736 24387 ft 277 kts 279°
2026-05-09 14:38 -31.13007 -69.47751 24378 ft 276 kts 279°
2026-05-09 14:39 -31.12157 -69.49767 24371 ft 276 kts 279°
2026-05-09 14:39 -31.11310 -69.51774 24368 ft 275 kts 279°
2026-05-09 14:39 -31.10464 -69.53783 24358 ft 275 kts 279°
2026-05-09 14:39 -31.09620 -69.55780 24359 ft 274 kts 279°
2026-05-09 14:40 -31.08778 -69.57773 24353 ft 274 kts 279°
2026-05-09 14:40 -31.07949 -69.59740 24363 ft 274 kts 279°
2026-05-09 14:40 -31.07098 -69.61751 24347 ft 276 kts 279°
2026-05-09 14:40 -31.06248 -69.63760 24346 ft 277 kts 279°
2026-05-09 14:41 -31.05395 -69.65773 24309 ft 276 kts 279°
2026-05-09 14:41 -31.04549 -69.67771 24320 ft 275 kts 279°
2026-05-09 14:41 -31.03706 -69.69765 24304 ft 273 kts 279°
2026-05-09 14:41 -31.02866 -69.71749 24315 ft 273 kts 279°
2026-05-09 14:42 -31.02023 -69.73732 24283 ft 272 kts 280°
2026-05-09 14:42 -31.01187 -69.75709 24285 ft 272 kts 280°
2026-05-09 14:42 -31.00347 -69.77683 24282 ft 272 kts 280°
2026-05-09 14:42 -30.99507 -69.79663 24266 ft 272 kts 280°
2026-05-09 14:43 -30.98666 -69.81642 24269 ft 273 kts 280°
2026-05-09 14:43 -30.97820 -69.83624 24257 ft 274 kts 280°
2026-05-09 14:43 -30.96987 -69.85587 24230 ft 273 kts 280°
2026-05-09 14:43 -30.96136 -69.87590 24226 ft 272 kts 280°
2026-05-09 14:44 -30.95305 -69.89536 24227 ft 272 kts 280°
2026-05-09 14:44 -30.94462 -69.91521 24214 ft 273 kts 281°
2026-05-09 14:44 -30.93617 -69.93496 24214 ft 273 kts 280°
2026-05-09 14:44 -30.92771 -69.95484 24209 ft 274 kts 281°
2026-05-09 14:45 -30.91923 -69.97471 24183 ft 274 kts 281°
2026-05-09 14:45 -30.91075 -69.99449 24153 ft 271 kts 281°
2026-05-09 14:45 -30.90242 -70.01402 24149 ft 268 kts 280°
2026-05-09 14:45 -30.89422 -70.03328 24194 ft 269 kts 281°
2026-05-09 14:46 -30.88582 -70.05287 24190 ft 272 kts 281°
2026-05-09 14:46 -30.87739 -70.07259 24157 ft 272 kts 281°
2026-05-09 14:46 -30.86894 -70.09228 24136 ft 271 kts 281°
2026-05-09 14:46 -30.86055 -70.11189 24159 ft 269 kts 281°
2026-05-09 14:47 -30.85220 -70.13138 24159 ft 270 kts 281°
2026-05-09 14:47 -30.84381 -70.15097 24146 ft 271 kts 281°
2026-05-09 14:47 -30.83538 -70.17055 24138 ft 271 kts 281°
2026-05-09 14:47 -30.82701 -70.19011 24168 ft 271 kts 281°
2026-05-09 14:48 -30.81858 -70.20980 24133 ft 272 kts 282°
2026-05-09 14:48 -30.81010 -70.22929 24061 ft 268 kts 282°
2026-05-09 14:48 -30.80200 -70.24833 24085 ft 265 kts 281°
2026-05-09 14:48 -30.79370 -70.26754 24111 ft 267 kts 282°
2026-05-09 14:49 -30.78540 -70.28677 24125 ft 266 kts 281°
2026-05-09 14:49 -30.77716 -70.30607 24136 ft 267 kts 282°
2026-05-09 14:49 -30.76883 -70.32542 24129 ft 268 kts 282°
2026-05-09 14:49 -30.76048 -70.34481 24126 ft 269 kts 282°
2026-05-09 14:50 -30.75214 -70.36423 24096 ft 268 kts 282°
2026-05-09 14:50 -30.74384 -70.38349 24082 ft 265 kts 282°
2026-05-09 14:50 -30.73565 -70.40253 24118 ft 263 kts 282°
2026-05-09 14:50 -30.72743 -70.42167 24125 ft 267 kts 282°
2026-05-09 14:51 -30.71878 -70.44098 24113 ft 270 kts 283°
2026-05-09 14:51 -30.71056 -70.46059 24100 ft 269 kts 281°
2026-05-09 14:51 -30.70235 -70.48033 24094 ft 273 kts 283°
2026-05-09 14:51 -30.69387 -70.50008 24083 ft 273 kts 282°
2026-05-09 14:52 -30.68565 -70.51975 23951 ft 267 kts 283°
2026-05-09 14:52 -30.67756 -70.53881 23918 ft 260 kts 282°
2026-05-09 14:52 -30.66957 -70.55756 24017 ft 259 kts 282°
2026-05-09 14:52 -30.66179 -70.57622 24038 ft 262 kts 282°
2026-05-09 14:53 -30.65367 -70.59531 24053 ft 264 kts 283°
2026-05-09 14:53 -30.64554 -70.61448 24043 ft 265 kts 282°
2026-05-09 14:53 -30.63737 -70.63377 24044 ft 266 kts 283°
2026-05-09 14:53 -30.62921 -70.65302 24052 ft 267 kts 283°
2026-05-09 14:54 -30.62098 -70.67239 24040 ft 267 kts 283°
2026-05-09 14:54 -30.61277 -70.69168 24030 ft 265 kts 283°
2026-05-09 14:54 -30.60466 -70.71088 24033 ft 263 kts 282°
2026-05-09 14:54 -30.59662 -70.72985 24011 ft 261 kts 283°
2026-05-09 14:55 -30.58854 -70.74870 24037 ft 260 kts 283°
2026-05-09 14:55 -30.58054 -70.76746 24040 ft 259 kts 283°
2026-05-09 14:55 -30.57257 -70.78619 24013 ft 259 kts 283°
2026-05-09 14:55 -30.56449 -70.80488 24017 ft 259 kts 283°
2026-05-09 14:56 -30.55663 -70.82337 24030 ft 259 kts 283°
2026-05-09 14:56 -30.54860 -70.84221 24034 ft 261 kts 283°
2026-05-09 14:56 -30.54043 -70.86110 24035 ft 261 kts 283°
2026-05-09 14:56 -30.53242 -70.87998 24034 ft 262 kts 283°
2026-05-09 14:57 -30.52427 -70.89892 24032 ft 263 kts 284°
2026-05-09 14:57 -30.51609 -70.91791 24032 ft 263 kts 283°
2026-05-09 14:57 -30.50797 -70.93696 24032 ft 263 kts 284°
2026-05-09 14:57 -30.49979 -70.95597 24035 ft 264 kts 284°
2026-05-09 14:58 -30.49161 -70.97496 24032 ft 263 kts 284°
2026-05-09 14:58 -30.48347 -70.99401 24043 ft 264 kts 284°
2026-05-09 14:58 -30.47524 -71.01307 24026 ft 264 kts 284°
2026-05-09 14:58 -30.46709 -71.03198 24034 ft 262 kts 284°
2026-05-09 14:59 -30.45898 -71.05093 24045 ft 262 kts 284°
2026-05-09 14:59 -30.45078 -71.06990 24043 ft 263 kts 284°
2026-05-09 14:59 -30.44261 -71.08886 24040 ft 263 kts 284°
2026-05-09 14:59 -30.43336 -71.10751 24039 ft 276 kts 299°
2026-05-09 15:00 -30.41771 -71.12153 24043 ft 297 kts 327°
2026-05-09 15:00 -30.39730 -71.12779 24049 ft 309 kts 348°
2026-05-09 15:00 -30.37569 -71.12776 24051 ft 313 kts
2026-05-09 15:00 -30.35421 -71.12537 24051 ft 314 kts
2026-05-09 15:01 -30.31066 -71.12302 24055 ft 314 kts
2026-05-09 15:01 -30.28883 -71.12177 24064 ft 314 kts 359°
2026-05-09 15:01 -30.26701 -71.12097 24053 ft 315 kts 358°
2026-05-09 15:02 -30.24529 -71.11977 24049 ft 315 kts
2026-05-09 15:02 -30.22354 -71.11656 24053 ft 315 kts
2026-05-09 15:02 -30.20167 -71.11433 24045 ft 314 kts
2026-05-09 15:02 -30.17997 -71.11167 24057 ft 315 kts
2026-05-09 15:03 -30.15812 -71.10910 24053 ft 315 kts
2026-05-09 15:03 -30.13626 -71.10663 24059 ft 316 kts
2026-05-09 15:03 -30.11433 -71.10398 24052 ft 317 kts
2026-05-09 15:03 -30.09241 -71.10145 24051 ft 317 kts
2026-05-09 15:04 -30.07046 -71.09889 24057 ft 317 kts
2026-05-09 15:04 -30.04857 -71.09630 24052 ft 316 kts
2026-05-09 15:06 -29.89525 -71.07841 24038 ft 316 kts
2026-05-09 15:06 -29.87367 -71.07590 24050 ft 316 kts
2026-05-09 15:06 -29.85168 -71.07334 24048 ft 316 kts
2026-05-09 15:06 -29.82981 -71.07080 24055 ft 316 kts
2026-05-09 15:07 -29.80786 -71.06824 24045 ft 317 kts
2026-05-09 15:07 -29.78596 -71.06570 24049 ft 316 kts
2026-05-09 15:07 -29.76406 -71.06314 24050 ft 316 kts
2026-05-09 15:07 -29.74211 -71.06059 24054 ft 317 kts
2026-05-09 15:08 -29.72020 -71.05806 24053 ft 317 kts
2026-05-09 15:08 -29.67630 -71.05292 24043 ft 316 kts
2026-05-09 15:08 -29.65481 -71.05047 24050 ft 315 kts
2026-05-09 15:09 -29.63298 -71.04791 24058 ft 316 kts
2026-05-09 15:10 -29.47980 -71.03019 24042 ft 316 kts
2026-05-09 15:11 -29.45787 -71.02767 24043 ft 316 kts
2026-05-09 15:11 -29.43603 -71.02514 24044 ft 315 kts
2026-05-09 15:11 -29.41423 -71.02261 24049 ft 315 kts
2026-05-09 15:11 -29.39237 -71.02010 24049 ft 316 kts
2026-05-09 15:12 -29.37048 -71.01756 24042 ft 316 kts
2026-05-09 15:12 -29.34864 -71.01506 24047 ft 316 kts
2026-05-09 15:12 -29.32671 -71.01252 24045 ft 316 kts
2026-05-09 15:12 -29.30507 -71.00988 24051 ft 317 kts
2026-05-09 15:13 -29.28312 -71.00687 24050 ft 317 kts
2026-05-09 15:13 -29.26114 -71.00531 24037 ft 317 kts
2026-05-09 15:13 -29.23920 -71.00295 24039 ft 316 kts
2026-05-09 15:13 -29.21724 -71.00101 24042 ft 316 kts
2026-05-09 15:14 -29.19529 -70.99893 24048 ft 316 kts
2026-05-09 15:14 -29.17336 -70.99685 24042 ft 317 kts
2026-05-09 15:14 -29.15139 -70.99480 24041 ft 316 kts
2026-05-09 15:14 -29.13683 -70.99342 24040 ft 316 kts
2026-05-09 15:15 -29.10750 -70.99067 24035 ft 316 kts
2026-05-09 15:15 -29.09302 -70.98930 24037 ft 316 kts
2026-05-09 15:15 -29.07116 -70.98724 24041 ft 315 kts
2026-05-09 15:15 -29.04928 -70.98520 24040 ft 315 kts
2026-05-09 15:16 -29.02743 -70.98315 24038 ft 315 kts
2026-05-09 15:16 -29.00552 -70.98109 24034 ft 315 kts
2026-05-09 15:16 -28.98362 -70.97903 24040 ft 315 kts
2026-05-09 15:16 -28.96176 -70.97698 24047 ft 315 kts
2026-05-09 15:17 -28.94015 -70.97496 23992 ft 316 kts
2026-05-09 15:17 -28.91857 -70.97293 23739 ft 306 kts
2026-05-09 15:17 -28.89749 -70.97096 23439 ft 301 kts
2026-05-09 15:17 -28.87667 -70.96902 23119 ft 299 kts
2026-05-09 15:18 -28.85597 -70.96707 22807 ft 298 kts
2026-05-09 15:18 -28.83526 -70.96514 22496 ft 298 kts
2026-05-09 15:18 -28.81463 -70.96321 22197 ft 298 kts
2026-05-09 15:18 -28.79402 -70.96129 21895 ft 297 kts
2026-05-09 15:19 -28.77347 -70.95937 21585 ft 295 kts
2026-05-09 15:19 -28.75308 -70.95745 21275 ft 293 kts
2026-05-09 15:19 -28.73279 -70.95556 21012 ft 290 kts
2026-05-09 15:19 -28.71273 -70.95370 20762 ft 287 kts
2026-05-09 15:20 -28.69291 -70.95185 20524 ft 285 kts
2026-05-09 15:20 -28.65376 -70.94820 20058 ft 283 kts
2026-05-09 15:20 -28.63417 -70.94637 19828 ft 282 kts
2026-05-09 15:21 -28.61462 -70.94456 19602 ft 282 kts
2026-05-09 15:21 -28.59510 -70.94272 19374 ft 281 kts
2026-05-09 15:21 -28.57561 -70.94093 19140 ft 280 kts
2026-05-09 15:21 -28.55630 -70.93912 18908 ft 278 kts
2026-05-09 15:22 -28.53699 -70.93732 18679 ft 277 kts
2026-05-09 15:22 -28.51783 -70.93598 18460 ft 276 kts
2026-05-09 15:22 -28.49871 -70.93374 18220 ft 276 kts
2026-05-09 15:22 -28.47961 -70.93175 17961 ft 274 kts
2026-05-09 15:23 -28.46071 -70.92988 17715 ft 273 kts
2026-05-09 15:23 -28.44179 -70.92782 17449 ft 272 kts
2026-05-09 15:23 -28.42320 -70.92591 17193 ft 270 kts
2026-05-09 15:23 -28.40452 -70.92401 16938 ft 268 kts
2026-05-09 15:24 -28.38601 -70.92205 16698 ft 267 kts
2026-05-09 15:24 -28.36758 -70.92015 16454 ft 265 kts
2026-05-09 15:24 -28.34919 -70.91825 16208 ft 264 kts
2026-05-09 15:24 -28.33093 -70.91634 15965 ft 263 kts
2026-05-09 15:25 -28.31276 -70.91446 15722 ft 261 kts
2026-05-09 15:25 -28.29471 -70.91277 15491 ft 260 kts 360°
2026-05-09 15:25 -28.27672 -70.91122 15240 ft 259 kts
2026-05-09 15:26 -28.24124 -70.90612 14774 ft 255 kts
2026-05-09 15:26 -28.22356 -70.90379 14544 ft 254 kts
2026-05-09 15:26 -28.20604 -70.90133 14314 ft 253 kts
2026-05-09 15:26 -28.18858 -70.89902 14087 ft 252 kts
2026-05-09 15:27 -28.17121 -70.89669 13874 ft 251 kts
2026-05-09 15:27 -28.15384 -70.89432 13610 ft 250 kts
2026-05-09 15:27 -28.13680 -70.89205 13353 ft 249 kts
2026-05-09 15:27 -28.11962 -70.88973 13094 ft 249 kts
2026-05-09 15:28 -28.10245 -70.88741 12839 ft 249 kts
2026-05-09 15:28 -28.08525 -70.88510 12591 ft 249 kts
2026-05-09 15:28 -28.06807 -70.88279 12343 ft 249 kts
2026-05-09 15:28 -28.05092 -70.88048 12090 ft 247 kts
2026-05-09 15:29 -28.03395 -70.87823 11835 ft 245 kts
2026-05-09 15:29 -28.01712 -70.87591 11594 ft 242 kts
2026-05-09 15:29 -28.00045 -70.87367 11354 ft 240 kts
2026-05-09 15:29 -27.98399 -70.87150 11117 ft 237 kts
2026-05-09 15:30 -27.96778 -70.86932 10880 ft 226 kts
2026-05-09 15:30 -27.95272 -70.86726 10641 ft 213 kts
2026-05-09 15:30 -27.93830 -70.86535 10403 ft 206 kts
2026-05-09 15:30 -27.92423 -70.86346 10170 ft 201 kts
2026-05-09 15:31 -27.91045 -70.86162 9938 ft 198 kts
2026-05-09 15:31 -27.89687 -70.85981 9680 ft 195 kts
2026-05-09 15:31 -27.88343 -70.85800 9423 ft 197 kts
2026-05-09 15:31 -27.86925 -70.85611 9175 ft 209 kts
2026-05-09 15:32 -27.85466 -70.85413 8936 ft 212 kts
2026-05-09 15:32 -27.83998 -70.85215 8681 ft 213 kts
2026-05-09 15:32 -27.82541 -70.85023 8435 ft 213 kts
2026-05-09 15:32 -27.81072 -70.84826 8195 ft 212 kts
2026-05-09 15:33 -27.79605 -70.84629 7950 ft 211 kts
2026-05-09 15:33 -27.78149 -70.84435 7705 ft 210 kts
2026-05-09 15:33 -27.76698 -70.84241 7461 ft 209 kts
2026-05-09 15:33 -27.75261 -70.84044 7226 ft 208 kts
2026-05-09 15:34 -27.73830 -70.83858 6990 ft 206 kts
2026-05-09 15:34 -27.72406 -70.83667 6757 ft 205 kts
2026-05-09 15:34 -27.70995 -70.83469 6521 ft 203 kts
2026-05-09 15:34 -27.69617 -70.83131 6277 ft 202 kts 14°
2026-05-09 15:35 -27.68263 -70.82721 6028 ft 201 kts 17°
2026-05-09 15:35 -27.66959 -70.82167 5780 ft 200 kts 24°
2026-05-09 15:35 -27.65685 -70.81545 5533 ft 199 kts 22°
2026-05-09 15:35 -27.64398 -70.80979 5290 ft 199 kts 21°
2026-05-09 15:36 -27.63109 -70.80412 5043 ft 198 kts 21°
2026-05-09 15:36 -27.61832 -70.79850 4806 ft 197 kts 21°
2026-05-09 15:36 -27.60558 -70.79275 4548 ft 196 kts 25°
2026-05-09 15:36 -27.59327 -70.78617 4303 ft 196 kts 24°
2026-05-09 15:37 -27.58073 -70.78026 4053 ft 195 kts 22°
2026-05-09 15:37 -27.56817 -70.77458 3812 ft 194 kts 22°
2026-05-09 15:37 -27.55565 -70.76901 3560 ft 193 kts 21°
2026-05-09 15:37 -27.54339 -70.76360 3318 ft 192 kts 21°
2026-05-09 15:38 -27.53114 -70.75822 3066 ft 191 kts 21°
2026-05-09 15:38 -27.51878 -70.75281 2807 ft 190 kts 21°
2026-05-09 15:38 -27.50647 -70.74745 2558 ft 190 kts 21°
2026-05-09 15:38 -27.49414 -70.74219 2299 ft 189 kts 18°
2026-05-09 15:39 -27.48145 -70.74131 2257 ft 180 kts 350°
2026-05-09 15:39 -27.46963 -70.74545 2292 ft 172 kts 342°
2026-05-09 15:39 -27.45858 -70.74921 2594 ft 158 kts 343°
2026-05-09 15:39 -27.44751 -70.75322 2420 ft 173 kts 342°
2026-05-09 15:40 -27.43598 -70.75729 2378 ft 175 kts 343°
2026-05-09 15:40 -27.42421 -70.76126 2406 ft 173 kts 345°
2026-05-09 15:40 -27.41248 -70.76430 2466 ft 174 kts 352°
2026-05-09 15:40 -27.40029 -70.76592 2408 ft 179 kts 356°
2026-05-09 15:41 -27.38794 -70.76678 2426 ft 177 kts 358°
2026-05-09 15:41 -27.37572 -70.76722 2467 ft 176 kts 360°
2026-05-09 15:41 -27.36338 -70.76680 2442 ft 178 kts
2026-05-09 15:41 -27.35295 -70.76631 2455 ft 177 kts
2026-05-09 15:42 -27.34189 -70.76702 2268 ft 135 kts 351°
2026-05-09 15:42 -27.33329 -70.76886 1858 ft 121 kts 349°
2026-05-09 15:42 -27.32518 -70.77071 1474 ft 121 kts 349°
2026-05-09 15:42 -27.31664 -70.77289 1357 ft 130 kts 347°
2026-05-09 15:43 -27.30809 -70.77497 1408 ft 117 kts 353°
2026-05-09 15:43 -27.30031 -70.77592 1312 ft 111 kts 356°
2026-05-09 15:43 -27.29268 -70.77646 1209 ft 109 kts 358°
2026-05-09 15:43 -27.28509 -70.77714 1066 ft 110 kts 355°
2026-05-09 15:44 -27.27754 -70.77778 882 ft 106 kts 356°
2026-05-09 15:44 -27.27030 -70.77843 685 ft 97 kts 355°
2026-05-09 15:44 -27.26507 -70.77892 657 ft 41 kts 354°
2026-05-09 15:44 -27.26345 -70.77902 651 ft 21 kts 345°
2026-05-09 15:45 -27.26210 -70.77921 649 ft 20 kts 358°
2026-05-09 15:45 -27.26118 -70.77920 647 ft 11 kts 12°
2026-05-09 15:45 -27.26074 -70.77847 647 ft 13 kts 76°
2026-05-09 15:45 -27.26060 -70.77739 646 ft 10 kts 92°
2026-05-09 15:46 -27.26075 -70.77654 647 ft 12 kts 130°
2026-05-09 15:46 -27.26149 -70.77629 649 ft 11 kts 174°
2026-05-09 15:46 -27.26229 -70.77626 651 ft 12 kts 178°
2026-05-09 15:46 -27.26291 -70.77595 652 ft 10 kts 141°
2026-05-09 15:47 -27.26316 -70.77535 653 ft 8 kts 92°
2026-05-09 15:47 -27.26317 -70.77518 653 ft 0 kts 90°